Weather History for Three Rivers, MI

Change the Weather History Date:

Monday, April 23, 2012

  Actual Average Record
Temperature  
Mean Temperature 44 °F -  
Max Temperature 55 °F 62 °F 87 °F (1980)
Min Temperature 33 °F 40 °F 22 °F (1956)
Degree Days  
Heating Degree Days 21    
Growing Degree Days 0 (Base 50)    
Moisture  
Dew Point 25 °F    
Average Humidity 49    
Maximum Humidity 73    
Minimum Humidity 30    
Precipitation  
Precipitation 0.00 in - - ()
Sea Level Pressure  
Sea Level Pressure 29.86 in    
Wind  
Wind Speed 9 mph (NW)    
Max Wind Speed 24 mph    
Max Gust Speed 34 mph    
Visibility 10 miles    
Events      
Averages and records for this station are not official NWS values.
T = Trace of Precipitation, MM = Missing Value Source: NWS Daily Summary

Daily Weather History Graph

Daily Weather History Graph

Search for Another Location

Airport:

Trip Planner

Search our weather history database for the weather conditions in past years. The results will help you decide how hot, cold, wet, or windy it might be!

Date:

Astronomy

Apr. 23, 2012 Rise Set
Actual Time 6:48 AM EDT 8:32 PM EDT
Civil Twilight 6:19 AM EDT 9:02 PM EDT
Nautical Twilight 5:43 AM EDT 9:38 PM EDT
Astronomical Twilight 5:04 AM EDT 10:17 PM EDT
Moon 7:57 AM EDT (4/23) 11:04 PM EDT (4/23)
Length of Visible Light 14h 43m
Length of Day
13h 43m
Waxing Crescent, 5% of the Moon is Illuminated
Apr 23
Waxing Crescent
Apr 29
First Quarter
May 5
Full
May 12
Last Quarter
May 20
New

Hourly Weather History & Observations

Time (EDT) Temp. Windchill Dew Point Humidity Pressure Visibility Wind Dir Wind Speed Gust Speed Precip Events Conditions
12:14 AM 38.3 °F 35.9 °F 25.0 °F 59% 30.01 in 10.0 mi NNW 3.5 mph - N/A   Clear
12:34 AM 37.4 °F 34.9 °F 25.7 °F 63% 30.00 in 10.0 mi NW 3.5 mph - N/A   Clear
12:54 AM 35.6 °F 32.8 °F 25.7 °F 67% 30.00 in 10.0 mi NW 3.5 mph - N/A   Clear
1:13 AM 35.1 °F 31.0 °F 25.7 °F 69% 29.99 in 10.0 mi NW 4.6 mph - N/A   Clear
1:34 AM 33.6 °F 29.4 °F 25.7 °F 73% 29.98 in 10.0 mi NW 4.6 mph - N/A   Clear
1:54 AM 36.1 °F 32.3 °F 25.0 °F 64% 29.98 in 10.0 mi NW 4.6 mph - N/A   Clear
2:14 AM 35.6 °F 32.8 °F 25.2 °F 66% 29.98 in 10.0 mi NW 3.5 mph - N/A   Clear
2:54 AM 35.1 °F 31.0 °F 25.5 °F 68% 29.97 in 10.0 mi NNW 4.6 mph - N/A   Clear
3:15 AM 34.7 °F 30.6 °F 25.5 °F 69% 29.96 in 10.0 mi NW 4.6 mph - N/A   Clear
3:34 AM 34.5 °F - 25.7 °F 70% 29.96 in 10.0 mi Calm Calm - N/A   Clear
3:54 AM 34.9 °F 29.9 °F 25.7 °F 69% 29.95 in 10.0 mi NNW 5.8 mph - N/A   Clear
4:14 AM 35.6 °F 30.7 °F 25.7 °F 67% 29.95 in 10.0 mi NNW 5.8 mph - N/A   Clear
4:34 AM 35.4 °F 31.5 °F 25.7 °F 68% 29.95 in 10.0 mi NNW 4.6 mph - N/A   Clear
4:54 AM 35.4 °F 30.5 °F 26.1 °F 69% 29.95 in 10.0 mi NNW 5.8 mph - N/A   Clear
5:14 AM 35.1 °F 31.0 °F 25.7 °F 69% 29.94 in 10.0 mi NNW 4.6 mph - N/A   Clear
5:34 AM 34.7 °F 31.8 °F 25.9 °F 70% 29.94 in 10.0 mi NNW 3.5 mph - N/A   Clear
5:54 AM 34.3 °F 30.2 °F 25.7 °F 71% 29.94 in 10.0 mi NW 4.6 mph - N/A   Clear
6:54 AM 34.0 °F 28.8 °F 25.5 °F 71% 29.94 in 10.0 mi NNW 5.8 mph - N/A   Clear
7:34 AM 35.2 °F 29.5 °F 25.7 °F 68% 29.94 in 10.0 mi NNW 6.9 mph - N/A   Clear
7:54 AM 36.7 °F 32.0 °F 25.7 °F 64% 29.94 in 10.0 mi NNW 5.8 mph - N/A   Clear
8:14 AM 37.9 °F 32.7 °F 26.2 °F 63% 29.93 in 10.0 mi NNW 6.9 mph - N/A   Clear
8:34 AM 39.2 °F 34.2 °F 26.2 °F 60% 29.93 in 10.0 mi NNW 6.9 mph - N/A   Clear
8:54 AM 40.6 °F 36.7 °F 26.8 °F 58% 29.92 in 10.0 mi NNW 5.8 mph - N/A   Clear
9:14 AM 42.1 °F 36.6 °F 27.5 °F 56% 29.92 in 10.0 mi NW 9.2 mph - N/A   Clear
9:34 AM 43.7 °F 38.1 °F 26.8 °F 51% 29.92 in 10.0 mi NNW 10.4 mph 16.1 mph N/A   Clear
9:54 AM 44.8 °F 39.4 °F 27.3 °F 50% 29.92 in 10.0 mi NW 10.4 mph - N/A   Clear
10:14 AM 46.4 °F 41.9 °F 27.9 °F 48% 29.91 in 10.0 mi NNW 9.2 mph - N/A   Clear
10:34 AM 47.8 °F - 26.6 °F 44% 29.90 in 10.0 mi NNW 10.4 mph - N/A   Clear
10:54 AM 49.1 °F - 25.3 °F 40% 29.90 in 10.0 mi NNW 11.5 mph 21.9 mph N/A   Clear
11:14 AM 50.9 °F - 25.3 °F 37% 29.90 in 10.0 mi NNW 12.7 mph 19.6 mph N/A   Clear
11:34 AM 50.9 °F - 22.6 °F 33% 29.88 in 10.0 mi North 17.3 mph 27.6 mph N/A   Clear
11:53 AM 51.8 °F - 21.7 °F 31% 29.88 in 10.0 mi North 15.0 mph 32.2 mph N/A   Clear
12:14 PM 52.2 °F - 21.6 °F 30% 29.87 in 10.0 mi North 20.7 mph 29.9 mph N/A   Clear
12:34 PM 53.4 °F - 23.0 °F 31% 29.86 in 10.0 mi NNW 19.6 mph 26.5 mph N/A   Clear
12:54 PM 53.6 °F - 24.4 °F 32% 29.85 in 10.0 mi NNW 17.3 mph 26.5 mph N/A   Clear
1:14 PM 54.0 °F - 23.0 °F 30% 29.84 in 10.0 mi NNW 20.7 mph 29.9 mph N/A   Clear
1:34 PM 54.3 °F - 23.0 °F 30% 29.83 in 10.0 mi NNW 19.6 mph 31.1 mph N/A   Clear
1:54 PM 55.2 °F - 24.1 °F 30% 29.82 in 10.0 mi NNW 15.0 mph 27.6 mph N/A   Clear
2:14 PM 55.0 °F - 30.9 °F 40% 29.81 in 10.0 mi NW 19.6 mph 25.3 mph N/A   Scattered Clouds
2:34 PM 54.3 °F - 29.8 °F 39% 29.82 in 10.0 mi NW 15.0 mph 28.8 mph N/A   Clear
2:54 PM 53.8 °F - 28.4 °F 38% 29.81 in 10.0 mi NW 21.9 mph 33.4 mph N/A   Clear
3:14 PM 53.4 °F - 27.7 °F 37% 29.81 in 10.0 mi WNW 20.7 mph 33.4 mph N/A   Clear
3:34 PM 53.6 °F - 27.9 °F 37% 29.80 in 10.0 mi WNW 21.9 mph 28.8 mph N/A   Clear
3:54 PM 53.1 °F - 27.3 °F 37% 29.80 in 10.0 mi NW 21.9 mph 29.9 mph N/A   Clear
4:14 PM 53.1 °F - 27.3 °F 37% 29.79 in 10.0 mi NW 24.2 mph 32.2 mph N/A   Clear
4:34 PM 52.5 °F - 27.5 °F 38% 29.79 in 10.0 mi WNW 24.2 mph 31.1 mph N/A   Clear
4:54 PM 52.0 °F - 26.6 °F 37% 29.78 in 10.0 mi NW 23.0 mph 32.2 mph N/A   Clear
5:14 PM 52.0 °F - 25.7 °F 36% 29.78 in 10.0 mi NW 24.2 mph 33.4 mph N/A   Clear
5:34 PM 51.8 °F - 26.1 °F 37% 29.78 in 10.0 mi NW 21.9 mph 32.2 mph N/A   Clear
5:54 PM 51.1 °F - 24.4 °F 35% 29.78 in 10.0 mi WNW 20.7 mph 32.2 mph N/A   Clear
6:14 PM 51.1 °F - 24.1 °F 35% 29.78 in 10.0 mi WNW 21.9 mph 29.9 mph N/A   Clear
6:34 PM 50.5 °F - 24.4 °F 36% 29.77 in 10.0 mi NW 18.4 mph 31.1 mph N/A   Clear
6:54 PM 50.2 °F - 24.1 °F 36% 29.77 in 10.0 mi NW 19.6 mph 34.5 mph N/A   Clear
7:14 PM 49.5 °F - 24.6 °F 38% 29.76 in 10.0 mi WNW 15.0 mph 23.0 mph N/A   Clear
7:34 PM 49.1 °F - 24.1 °F 38% 29.76 in 10.0 mi NW 16.1 mph 34.5 mph N/A   Clear
7:54 PM 48.6 °F - 24.1 °F 38% 29.76 in 10.0 mi NW 16.1 mph 24.2 mph N/A   Clear
8:14 PM 48.0 °F - 23.7 °F 39% 29.75 in 10.0 mi NW 15.0 mph 21.9 mph N/A   Clear
8:34 PM 47.3 °F - 23.4 °F 39% 29.75 in 10.0 mi NW 13.8 mph 20.7 mph N/A   Clear
8:54 PM 46.8 °F - 23.4 °F 40% 29.75 in 10.0 mi NW 12.7 mph 17.3 mph N/A   Clear
9:14 PM 46.4 °F 41.9 °F 23.0 °F 40% 29.75 in 10.0 mi NW 9.2 mph 17.3 mph N/A   Clear
9:34 PM 45.0 °F 39.7 °F 23.4 °F 43% 29.75 in 10.0 mi WNW 10.4 mph 16.1 mph N/A   Clear
9:54 PM 44.4 °F 38.6 °F 23.9 °F 44% 29.74 in 10.0 mi WNW 11.5 mph 17.3 mph N/A   Clear
10:14 PM 43.9 °F 38.3 °F 24.4 °F 46% 29.74 in 10.0 mi WNW 10.4 mph 16.1 mph N/A   Clear
10:34 PM 43.3 °F 37.7 °F 24.8 °F 48% 29.74 in 10.0 mi WNW 10.4 mph 19.6 mph N/A   Clear
10:54 PM 42.8 °F 37.5 °F 25.7 °F 51% 29.74 in 10.0 mi NW 9.2 mph - N/A   Clear
11:14 PM 42.4 °F 36.5 °F 25.9 °F 52% 29.74 in 10.0 mi NW 10.4 mph - N/A   Clear
11:34 PM 42.3 °F 37.3 °F 26.1 °F 53% 29.73 in 10.0 mi NW 8.1 mph - N/A   Clear
11:55 PM 41.9 °F 36.9 °F 26.6 °F 55% 29.73 in 10.0 mi NW 8.1 mph - N/A   Clear